EWG2KD LDSP-EDDK

Flight info

Callsign EWG2KD
Flight time 1h 48m
Altitude 38000
Route ZDA DCT MONFA DCT BAKOR DCT SOTOV DCT KPT DCT KUNOD L608 KOVAN/N0441F340 T844 UMDAS/N0390F240 T844 ASKIK T840 GULKO GULKO1F
Aircraft A319/M-SDE3FGHIRWY/LB1

Departure

Time 2026-04-22 18:10
Airport Split Saint Jerome Airport (LDSP)

Arrival

Time 2026-04-22 19:59
Airport Cologne Bonn Airport (EDDK)
Time Latitude Longitude Altitude Speed Heading
2026-04-22 17:43 43.53728 16.29880 68 ft 0 kts 113°
2026-04-22 18:02 43.53728 16.29879 68 ft 0 kts 113°
2026-04-22 18:03 43.53728 16.29882 61 ft 1 kts 110°
2026-04-22 18:03 43.53741 16.29887 60 ft 4 kts 358°
2026-04-22 18:04 43.53752 16.29815 68 ft 12 kts 276°
2026-04-22 18:04 43.53713 16.29710 66 ft 14 kts 233°
2026-04-22 18:04 43.53669 16.29610 67 ft 6 kts 266°
2026-04-22 18:04 43.53670 16.29603 65 ft 0 kts 276°
2026-04-22 18:05 43.53670 16.29604 65 ft 0 kts 276°
2026-04-22 18:07 43.53687 16.29576 73 ft 8 kts 312°
2026-04-22 18:07 43.53698 16.29488 79 ft 12 kts 260°
2026-04-22 18:08 43.53653 16.29359 81 ft 19 kts 233°
2026-04-22 18:08 43.53542 16.29159 82 ft 32 kts 232°
2026-04-22 18:08 43.53400 16.28902 83 ft 35 kts 232°
2026-04-22 18:08 43.53277 16.28679 79 ft 21 kts 232°
2026-04-22 18:09 43.53199 16.28607 73 ft 9 kts 239°
2026-04-22 18:09 43.53240 16.28612 72 ft 5 kts 53°
2026-04-22 18:09 43.53240 16.28614 72 ft 0 kts 53°
2026-04-22 18:09 43.53251 16.28633 73 ft 14 kts 53°
2026-04-22 18:10 43.53453 16.29000 80 ft 81 kts 52°
2026-04-22 18:10 43.53920 16.29842 82 ft 137 kts 52°
2026-04-22 18:10 43.54506 16.30889 604 ft 138 kts 52°
2026-04-22 18:10 43.55098 16.31957 1221 ft 141 kts 52°
2026-04-22 18:11 43.55607 16.33198 1674 ft 161 kts 71°
2026-04-22 18:11 43.55653 16.34817 2166 ft 180 kts 98°
2026-04-22 18:11 43.55050 16.36383 2844 ft 193 kts 128°
2026-04-22 18:11 43.53854 16.37264 3558 ft 207 kts 164°
2026-04-22 18:12 43.52414 16.37495 4301 ft 208 kts 164°
2026-04-22 18:12 43.51066 16.38131 4944 ft 205 kts 148°
2026-04-22 18:12 43.50202 16.38723 5060 ft 205 kts 147°
2026-04-22 18:12 43.48535 16.39912 5062 ft 203 kts 146°
2026-04-22 18:13 43.47237 16.40761 5485 ft 212 kts 159°
2026-04-22 18:13 43.45744 16.40741 5666 ft 222 kts 197°
2026-04-22 18:13 43.44471 16.39423 5806 ft 243 kts 233°
2026-04-22 18:13 43.43432 16.37475 6147 ft 266 kts 235°
2026-04-22 18:14 43.42276 16.35321 6652 ft 285 kts 238°
2026-04-22 18:14 43.41097 16.33158 7630 ft 287 kts 235°
2026-04-22 18:14 43.39888 16.30980 8675 ft 288 kts 236°
2026-04-22 18:14 43.38656 16.28775 9597 ft 294 kts 235°
2026-04-22 18:15 43.37400 16.26533 10390 ft 303 kts 236°
2026-04-22 18:15 43.36129 16.24109 10783 ft 321 kts 244°
2026-04-22 18:15 43.35565 16.21160 11338 ft 324 kts 272°
2026-04-22 18:15 43.35849 16.18097 12074 ft 325 kts 289°
2026-04-22 18:16 43.36846 16.15334 12870 ft 324 kts 309°
2026-04-22 18:16 43.38405 16.13105 13701 ft 324 kts 318°
2026-04-22 18:16 43.40050 16.10969 14470 ft 326 kts 318°
2026-04-22 18:16 43.41718 16.08837 15206 ft 328 kts 319°
2026-04-22 18:17 43.43401 16.06694 15937 ft 331 kts 319°
2026-04-22 18:17 43.45094 16.04533 16675 ft 333 kts 319°
2026-04-22 18:17 43.46771 16.02377 17397 ft 336 kts 318°
2026-04-22 18:17 43.48480 16.00167 18135 ft 339 kts 318°
2026-04-22 18:18 43.50207 15.97929 18730 ft 343 kts 318°
2026-04-22 18:18 43.51952 15.95670 19376 ft 345 kts 318°
2026-04-22 18:18 43.53705 15.93399 20039 ft 347 kts 318°
2026-04-22 18:18 43.55467 15.91114 20719 ft 348 kts 318°
2026-04-22 18:19 43.57234 15.88816 21372 ft 350 kts 318°
2026-04-22 18:19 43.59011 15.86504 22027 ft 352 kts 318°
2026-04-22 18:19 43.60798 15.84183 22669 ft 354 kts 318°
2026-04-22 18:19 43.62569 15.81876 23287 ft 356 kts 318°
2026-04-22 18:20 43.64373 15.79523 23857 ft 358 kts 318°
2026-04-22 18:20 43.66187 15.77153 24354 ft 360 kts 317°
2026-04-22 18:20 43.68008 15.74774 24857 ft 361 kts 317°
2026-04-22 18:20 43.69831 15.72389 25071 ft 361 kts 317°
2026-04-22 18:21 43.71656 15.70002 25127 ft 361 kts 317°
2026-04-22 18:21 43.73478 15.67623 25130 ft 360 kts 317°
2026-04-22 18:21 43.75301 15.65244 25130 ft 360 kts 317°
2026-04-22 18:21 43.77121 15.62870 25124 ft 359 kts 317°
2026-04-22 18:22 43.78934 15.60496 25135 ft 359 kts 317°
2026-04-22 18:22 43.80746 15.58117 25136 ft 359 kts 317°
2026-04-22 18:22 43.82528 15.55768 25136 ft 359 kts 317°
2026-04-22 18:22 43.84335 15.53387 25136 ft 359 kts 317°
2026-04-22 18:23 43.86142 15.51003 25140 ft 359 kts 317°
2026-04-22 18:23 43.87947 15.48618 25142 ft 359 kts 317°
2026-04-22 18:23 43.89753 15.46231 25141 ft 359 kts 317°
2026-04-22 18:24 43.93366 15.41465 25139 ft 359 kts 317°
2026-04-22 18:24 43.95176 15.39077 25152 ft 359 kts 317°
2026-04-22 18:24 43.98826 15.34248 25146 ft 365 kts 317°
2026-04-22 18:25 44.00673 15.31803 25509 ft 368 kts 317°
2026-04-22 18:25 44.02501 15.29384 25990 ft 367 kts 317°
2026-04-22 18:25 44.04345 15.26936 26507 ft 367 kts 317°
2026-04-22 18:26 44.08050 15.22008 27461 ft 370 kts 317°
2026-04-22 18:26 44.09913 15.19525 27925 ft 372 kts 316°
2026-04-22 18:26 44.11784 15.17029 28386 ft 374 kts 316°
2026-04-22 18:26 44.13664 15.14519 28845 ft 375 kts 316°
2026-04-22 18:27 44.15554 15.11993 29295 ft 377 kts 316°
2026-04-22 18:27 44.17448 15.09458 29733 ft 379 kts 316°
2026-04-22 18:27 44.19356 15.06907 30187 ft 381 kts 317°
2026-04-22 18:27 44.21277 15.04338 30489 ft 384 kts 317°
2026-04-22 18:28 44.23185 15.01781 30762 ft 387 kts 316°
2026-04-22 18:28 44.25127 14.99176 31087 ft 389 kts 316°
2026-04-22 18:28 44.27083 14.96554 31370 ft 391 kts 316°
2026-04-22 18:28 44.29052 14.93909 31641 ft 394 kts 316°
2026-04-22 18:29 44.31031 14.91244 31922 ft 397 kts 316°
2026-04-22 18:29 44.33019 14.88565 32305 ft 397 kts 316°
2026-04-22 18:29 44.35003 14.85887 32680 ft 397 kts 316°
2026-04-22 18:29 44.36995 14.83200 33043 ft 398 kts 316°
2026-04-22 18:30 44.38985 14.80515 33414 ft 398 kts 316°
2026-04-22 18:30 44.42951 14.75154 34180 ft 400 kts 316°
2026-04-22 18:30 44.44955 14.72433 34433 ft 402 kts 316°
2026-04-22 18:31 44.46966 14.69701 34713 ft 404 kts 316°
2026-04-22 18:31 44.48984 14.66960 35011 ft 404 kts 316°
2026-04-22 18:31 44.51003 14.64215 35305 ft 405 kts 316°
2026-04-22 18:31 44.53024 14.61466 35602 ft 406 kts 316°
2026-04-22 18:32 44.54366 14.59638 35797 ft 406 kts 316°
2026-04-22 18:32 44.56390 14.56878 36089 ft 406 kts 316°
2026-04-22 18:32 44.59072 14.53217 36467 ft 407 kts 316°
2026-04-22 18:32 44.61103 14.50445 36746 ft 407 kts 316°
2026-04-22 18:33 44.63132 14.47672 37003 ft 407 kts 316°
2026-04-22 18:33 44.65162 14.44894 37296 ft 407 kts 316°
2026-04-22 18:33 44.67187 14.42116 37578 ft 408 kts 316°
2026-04-22 18:33 44.69217 14.39332 37818 ft 408 kts 316°
2026-04-22 18:34 44.70564 14.37484 37984 ft 409 kts 316°
2026-04-22 18:34 44.72600 14.34689 38148 ft 410 kts 316°
2026-04-22 18:34 44.74640 14.31885 38178 ft 410 kts 316°
2026-04-22 18:35 44.78717 14.26276 38177 ft 410 kts 316°
2026-04-22 18:35 44.82787 14.20657 38182 ft 410 kts 316°
2026-04-22 18:36 44.86849 14.15035 38178 ft 409 kts 316°
2026-04-22 18:36 44.90873 14.09437 38192 ft 409 kts 316°
2026-04-22 18:37 44.94936 14.03790 38186 ft 410 kts 316°
2026-04-22 18:37 44.99009 13.98132 38184 ft 411 kts 316°
2026-04-22 18:38 45.03079 13.92447 38177 ft 412 kts 316°
2026-04-22 18:38 45.07155 13.86745 38178 ft 412 kts 316°
2026-04-22 18:39 45.13238 13.78226 38198 ft 412 kts 315°
2026-04-22 18:39 45.17308 13.72504 38190 ft 413 kts 316°
2026-04-22 18:40 45.21392 13.66764 38182 ft 414 kts 315°
2026-04-22 18:40 45.25447 13.61036 38160 ft 415 kts 315°
2026-04-22 18:41 45.29529 13.55246 38170 ft 415 kts 315°
2026-04-22 18:41 45.33617 13.49448 38178 ft 416 kts 315°
2026-04-22 18:42 45.37704 13.43631 38191 ft 416 kts 316°
2026-04-22 18:42 45.41772 13.37845 38181 ft 416 kts 315°
2026-04-22 18:43 45.45869 13.32007 38185 ft 417 kts 315°
2026-04-22 18:43 45.49979 13.26156 38175 ft 418 kts 316°
2026-04-22 18:44 45.54194 13.20447 38185 ft 418 kts 317°
2026-04-22 18:44 45.58458 13.14802 38191 ft 418 kts 317°
2026-04-22 18:45 45.62670 13.09159 38216 ft 418 kts 318°
2026-04-22 18:45 45.66894 13.03446 38211 ft 418 kts 317°
2026-04-22 18:46 45.71108 12.97713 38175 ft 418 kts 317°
2026-04-22 18:46 45.75323 12.91979 38175 ft 418 kts 317°
2026-04-22 18:47 45.79511 12.86276 38172 ft 418 kts 317°
2026-04-22 18:47 45.83718 12.80525 38171 ft 418 kts 317°
2026-04-22 18:48 45.87931 12.74762 38179 ft 418 kts 317°
2026-04-22 18:48 45.92142 12.68992 38165 ft 418 kts 317°
2026-04-22 18:49 45.96315 12.63255 38171 ft 418 kts 317°
2026-04-22 18:49 46.00510 12.57478 38173 ft 417 kts 317°
2026-04-22 18:50 46.04700 12.51689 38169 ft 417 kts 317°
2026-04-22 18:50 46.08884 12.45904 38171 ft 417 kts 317°
2026-04-22 18:51 46.13070 12.40113 38167 ft 417 kts 317°
2026-04-22 18:51 46.17217 12.34361 38194 ft 416 kts 317°
2026-04-22 18:52 46.21375 12.28571 38204 ft 415 kts 317°
2026-04-22 18:52 46.25519 12.22773 38216 ft 414 kts 317°
2026-04-22 18:53 46.29660 12.16979 38215 ft 414 kts 317°
2026-04-22 18:53 46.33798 12.11181 38220 ft 415 kts 317°
2026-04-22 18:54 46.37910 12.05405 38171 ft 415 kts 317°
2026-04-22 18:54 46.42057 11.99570 38180 ft 416 kts 317°
2026-04-22 18:55 46.46202 11.93717 38190 ft 416 kts 317°
2026-04-22 18:55 46.50344 11.87855 38183 ft 416 kts 317°
2026-04-22 18:56 46.54461 11.82024 38180 ft 416 kts 317°
2026-04-22 18:56 46.58598 11.76134 38174 ft 417 kts 317°
2026-04-22 18:57 46.62720 11.70187 38160 ft 418 kts 315°
2026-04-22 18:57 46.66731 11.64037 38167 ft 419 kts 314°
2026-04-22 18:58 46.70683 11.57858 38160 ft 419 kts 314°
2026-04-22 18:58 46.74679 11.51644 38180 ft 420 kts 315°
2026-04-22 18:59 46.78693 11.45446 38163 ft 420 kts 315°
2026-04-22 18:59 46.82712 11.39241 38198 ft 421 kts 315°
2026-04-22 19:00 46.86696 11.33051 38202 ft 422 kts 315°
2026-04-22 19:00 46.90715 11.26792 38197 ft 422 kts 315°
2026-04-22 19:01 46.94827 11.20666 38213 ft 421 kts 322°
2026-04-22 19:01 46.99551 11.15613 38217 ft 421 kts 325°
2026-04-22 19:02 47.04300 11.10599 38220 ft 420 kts 325°
2026-04-22 19:02 47.09041 11.05580 38240 ft 421 kts 325°
2026-04-22 19:03 47.13754 11.00580 38253 ft 421 kts 325°
2026-04-22 19:03 47.18498 10.95535 38254 ft 421 kts 325°
2026-04-22 19:04 47.23236 10.90480 38258 ft 421 kts 325°
2026-04-22 19:04 47.27976 10.85418 38258 ft 421 kts 325°
2026-04-22 19:05 47.32686 10.80370 38248 ft 421 kts 325°
2026-04-22 19:05 47.37424 10.75282 38255 ft 422 kts 325°
2026-04-22 19:06 47.42163 10.70185 38265 ft 421 kts 325°
2026-04-22 19:07 47.49234 10.62565 38271 ft 421 kts 325°
2026-04-22 19:07 47.53967 10.57445 38268 ft 422 kts 325°
2026-04-22 19:08 47.58700 10.52302 38265 ft 422 kts 325°
2026-04-22 19:08 47.63441 10.47149 38256 ft 423 kts 325°
2026-04-22 19:09 47.68182 10.41977 38265 ft 423 kts 325°
2026-04-22 19:09 47.72891 10.36828 38271 ft 423 kts 325°
2026-04-22 19:10 47.77586 10.31527 38277 ft 424 kts 323°
2026-04-22 19:10 47.82141 10.25933 38269 ft 425 kts 322°
2026-04-22 19:11 47.86667 10.20274 38269 ft 425 kts 322°
2026-04-22 19:11 47.91194 10.14695 38253 ft 425 kts 322°
2026-04-22 19:12 47.95769 10.09110 38258 ft 425 kts 322°
2026-04-22 19:12 48.00334 10.03512 38124 ft 423 kts 322°
2026-04-22 19:12 48.02609 10.00709 37568 ft 425 kts 322°
2026-04-22 19:13 48.04892 9.97894 36972 ft 426 kts 322°
2026-04-22 19:13 48.07177 9.95079 36371 ft 426 kts 322°
2026-04-22 19:13 48.09468 9.92255 35777 ft 427 kts 323°
2026-04-22 19:13 48.11727 9.89461 35176 ft 428 kts 322°
2026-04-22 19:14 48.14018 9.86619 34583 ft 428 kts 322°
2026-04-22 19:14 48.16306 9.83778 34313 ft 427 kts 322°
2026-04-22 19:14 48.18669 9.81109 34249 ft 424 kts 332°
2026-04-22 19:15 48.23099 9.78026 34270 ft 423 kts 338°
2026-04-22 19:15 48.29423 9.73860 34274 ft 426 kts 338°
2026-04-22 19:16 48.34849 9.70280 34281 ft 426 kts 338°
2026-04-22 19:16 48.40240 9.66716 34288 ft 426 kts 338°
2026-04-22 19:17 48.45670 9.63123 34287 ft 426 kts 338°
2026-04-22 19:17 48.51098 9.59519 34294 ft 426 kts 338°
2026-04-22 19:18 48.56525 9.55898 34275 ft 426 kts 338°
2026-04-22 19:18 48.61937 9.52289 34289 ft 425 kts 338°
2026-04-22 19:19 48.67307 9.48705 34292 ft 425 kts 338°
2026-04-22 19:19 48.72713 9.45073 34293 ft 426 kts 338°
2026-04-22 19:20 48.78129 9.41424 34287 ft 426 kts 338°
2026-04-22 19:20 48.83519 9.37800 34290 ft 426 kts 338°
2026-04-22 19:21 48.88941 9.34145 34280 ft 426 kts 338°
2026-04-22 19:21 48.94364 9.30474 34288 ft 427 kts 338°
2026-04-22 19:22 48.99793 9.26786 34292 ft 428 kts 338°
2026-04-22 19:22 49.05222 9.23095 34297 ft 427 kts 338°
2026-04-22 19:23 49.10647 9.19396 34296 ft 427 kts 338°
2026-04-22 19:23 49.16030 9.15704 34296 ft 427 kts 338°
2026-04-22 19:24 49.21452 9.11985 34301 ft 427 kts 338°
2026-04-22 19:24 49.26879 9.08252 34304 ft 428 kts 338°
2026-04-22 19:25 49.32304 9.04505 34301 ft 428 kts 338°
2026-04-22 19:25 49.37732 9.00767 34307 ft 428 kts 338°
2026-04-22 19:26 49.43129 8.97034 34304 ft 429 kts 338°
2026-04-22 19:26 49.48568 8.93260 34303 ft 428 kts 338°
2026-04-22 19:27 49.53992 8.89496 34308 ft 427 kts 338°
2026-04-22 19:27 49.56695 8.87617 34151 ft 424 kts 338°
2026-04-22 19:27 49.59362 8.85760 33875 ft 419 kts 338°
2026-04-22 19:27 49.62002 8.83918 33597 ft 416 kts 338°
2026-04-22 19:28 49.64630 8.82078 33323 ft 414 kts 338°
2026-04-22 19:28 49.67251 8.80243 33069 ft 413 kts 338°
2026-04-22 19:28 49.69828 8.78433 32797 ft 412 kts 338°
2026-04-22 19:28 49.72428 8.76602 32534 ft 410 kts 338°
2026-04-22 19:29 49.75017 8.74779 32275 ft 408 kts 339°
2026-04-22 19:29 49.77599 8.72964 32018 ft 407 kts 339°
2026-04-22 19:29 49.80172 8.71153 31762 ft 405 kts 339°
2026-04-22 19:29 49.82733 8.69350 31502 ft 404 kts 339°
2026-04-22 19:30 49.84423 8.68159 31342 ft 403 kts 339°
2026-04-22 19:30 49.87825 8.65761 30455 ft 402 kts 339°
2026-04-22 19:30 49.90383 8.63954 29238 ft 405 kts 339°
2026-04-22 19:30 49.92957 8.62128 28092 ft 408 kts 339°
2026-04-22 19:31 49.95520 8.60305 27595 ft 403 kts 339°
2026-04-22 19:31 49.98047 8.58508 27060 ft 398 kts 339°
2026-04-22 19:31 50.00556 8.56727 26284 ft 402 kts 339°
2026-04-22 19:31 50.03073 8.54935 25893 ft 395 kts 339°
2026-04-22 19:32 50.05552 8.53222 25666 ft 383 kts 343°
2026-04-22 19:32 50.08028 8.51882 25390 ft 375 kts 345°
2026-04-22 19:32 50.10488 8.50568 24971 ft 372 kts 345°
2026-04-22 19:32 50.12924 8.49263 24562 ft 369 kts 345°
2026-04-22 19:33 50.15339 8.47962 24159 ft 366 kts 345°
2026-04-22 19:33 50.17738 8.46666 23705 ft 364 kts 345°
2026-04-22 19:33 50.20114 8.45373 23271 ft 359 kts 345°
2026-04-22 19:33 50.22461 8.44094 22849 ft 355 kts 345°
2026-04-22 19:34 50.24782 8.42836 22423 ft 350 kts 345°
2026-04-22 19:34 50.27040 8.41615 22001 ft 347 kts 345°
2026-04-22 19:34 50.29279 8.40224 21561 ft 347 kts 337°
2026-04-22 19:34 50.31351 8.38281 21124 ft 347 kts 331°
2026-04-22 19:35 50.33383 8.36257 20677 ft 345 kts 331°
2026-04-22 19:35 50.35398 8.34243 20235 ft 343 kts 331°
2026-04-22 19:35 50.37372 8.32274 19798 ft 340 kts 331°
2026-04-22 19:35 50.39362 8.30285 19363 ft 338 kts 331°
2026-04-22 19:36 50.41339 8.28305 18940 ft 336 kts 331°
2026-04-22 19:36 50.43305 8.26337 18489 ft 334 kts 331°
2026-04-22 19:36 50.45255 8.24383 18032 ft 331 kts 331°
2026-04-22 19:36 50.47184 8.22447 17611 ft 328 kts 331°
2026-04-22 19:37 50.49071 8.20549 17191 ft 324 kts 331°
2026-04-22 19:37 50.50958 8.18647 16773 ft 321 kts 331°
2026-04-22 19:37 50.52834 8.16761 16360 ft 319 kts 331°
2026-04-22 19:37 50.54693 8.14888 15950 ft 316 kts 331°
2026-04-22 19:38 50.56539 8.13030 15544 ft 314 kts 331°
2026-04-22 19:38 50.58375 8.11179 15131 ft 312 kts 331°
2026-04-22 19:38 50.60197 8.09340 14732 ft 311 kts 330°
2026-04-22 19:38 50.62013 8.07506 14332 ft 309 kts 330°
2026-04-22 19:39 50.63817 8.05679 13885 ft 307 kts 330°
2026-04-22 19:39 50.65606 8.03865 13480 ft 305 kts 330°
2026-04-22 19:39 50.67381 8.02064 13089 ft 302 kts 330°
2026-04-22 19:39 50.69104 8.00263 12706 ft 304 kts 325°
2026-04-22 19:40 50.70516 7.97732 12254 ft 311 kts 306°
2026-04-22 19:40 50.71658 7.94821 11783 ft 312 kts 304°
2026-04-22 19:40 50.72775 7.91890 11402 ft 310 kts 303°
2026-04-22 19:40 50.73885 7.88973 11320 ft 310 kts 303°
2026-04-22 19:41 50.74999 7.86048 11331 ft 312 kts 303°
2026-04-22 19:41 50.76116 7.83112 11336 ft 312 kts 303°
2026-04-22 19:41 50.77229 7.80170 11338 ft 312 kts 303°
2026-04-22 19:41 50.78342 7.77231 11341 ft 312 kts 303°
2026-04-22 19:42 50.79455 7.74289 11343 ft 312 kts 303°
2026-04-22 19:42 50.80568 7.71351 11345 ft 312 kts 303°
2026-04-22 19:42 50.81681 7.68409 11348 ft 312 kts 303°
2026-04-22 19:42 50.82795 7.65465 11349 ft 312 kts 303°
2026-04-22 19:43 50.85004 7.59617 11353 ft 312 kts 303°
2026-04-22 19:43 50.86117 7.56672 11355 ft 312 kts 303°
2026-04-22 19:43 50.87229 7.53728 11355 ft 312 kts 303°
2026-04-22 19:44 50.88339 7.50776 11349 ft 312 kts 303°
2026-04-22 19:44 50.89444 7.47819 11339 ft 312 kts 303°
2026-04-22 19:44 50.90543 7.44876 11069 ft 309 kts 303°
2026-04-22 19:44 50.91639 7.41951 10715 ft 306 kts 303°
2026-04-22 19:45 50.92707 7.39105 10554 ft 297 kts 303°
2026-04-22 19:45 50.93756 7.36311 10248 ft 293 kts 303°
2026-04-22 19:45 50.94798 7.33542 9883 ft 292 kts 303°
2026-04-22 19:45 50.95822 7.30825 9515 ft 290 kts 303°
2026-04-22 19:46 50.96856 7.28091 9165 ft 288 kts 303°
2026-04-22 19:46 50.97886 7.25375 8808 ft 287 kts 303°
2026-04-22 19:46 50.98914 7.22673 8462 ft 285 kts 303°
2026-04-22 19:46 50.99938 7.19992 8113 ft 283 kts 303°
2026-04-22 19:47 51.00960 7.17328 7761 ft 282 kts 303°
2026-04-22 19:47 51.01981 7.14678 7420 ft 280 kts 303°
2026-04-22 19:47 51.02654 7.12937 7201 ft 279 kts 303°
2026-04-22 19:47 51.04016 7.09434 6753 ft 277 kts 303°
2026-04-22 19:48 51.05025 7.06826 6382 ft 277 kts 303°
2026-04-22 19:48 51.05727 7.04036 6025 ft 278 kts 280°
2026-04-22 19:48 51.05902 7.00987 5671 ft 277 kts 274°
2026-04-22 19:48 51.06011 6.97972 5480 ft 266 kts 273°
2026-04-22 19:49 51.05859 6.95168 5317 ft 248 kts 250°
2026-04-22 19:49 51.04922 6.92978 5041 ft 236 kts 213°
2026-04-22 19:49 51.03458 6.92132 4917 ft 218 kts 179°
2026-04-22 19:49 51.02065 6.92639 4764 ft 197 kts 147°
2026-04-22 19:50 51.01039 6.93950 4492 ft 186 kts 135°
2026-04-22 19:50 51.00095 6.95344 4107 ft 184 kts 134°
2026-04-22 19:50 50.99260 6.96819 4021 ft 180 kts 113°
2026-04-22 19:50 50.99060 6.98766 4030 ft 181 kts 88°
2026-04-22 19:51 50.99245 7.00737 4010 ft 182 kts 65°
2026-04-22 19:51 51.00004 7.02313 4020 ft 184 kts 46°
2026-04-22 19:51 51.00938 7.03710 4017 ft 185 kts 43°
2026-04-22 19:51 51.01893 7.05079 4018 ft 185 kts 43°
2026-04-22 19:52 51.03010 7.06078 4013 ft 189 kts 11°
2026-04-22 19:52 51.04299 7.05744 4016 ft 194 kts 330°
2026-04-22 19:52 51.05186 7.04156 4018 ft 197 kts 291°
2026-04-22 19:52 51.05290 7.02044 3732 ft 193 kts 254°
2026-04-22 19:53 51.04843 7.00023 3347 ft 195 kts 245°
2026-04-22 19:53 51.04294 6.98046 3066 ft 194 kts 243°
2026-04-22 19:53 51.03656 6.96202 3001 ft 193 kts 223°
2026-04-22 19:53 51.02554 6.95044 3021 ft 190 kts 195°
2026-04-22 19:54 51.01267 6.94802 3020 ft 185 kts 168°
2026-04-22 19:54 51.00081 6.95468 3018 ft 181 kts 143°
2026-04-22 19:54 50.99132 6.96755 3016 ft 179 kts 134°
2026-04-22 19:54 50.98212 6.98104 2910 ft 180 kts 134°
2026-04-22 19:55 50.97295 6.99444 2751 ft 179 kts 134°
2026-04-22 19:55 50.96385 7.00771 2479 ft 175 kts 133°
2026-04-22 19:55 50.95515 7.02038 2241 ft 162 kts 133°
2026-04-22 19:55 50.94731 7.03177 2050 ft 144 kts 132°
2026-04-22 19:56 50.94037 7.04186 1856 ft 129 kts 131°
2026-04-22 19:56 50.93383 7.05140 1682 ft 127 kts 130°
2026-04-22 19:56 50.92740 7.06080 1496 ft 125 kts 130°
2026-04-22 19:56 50.92101 7.07013 1340 ft 125 kts 130°
2026-04-22 19:57 50.91465 7.07932 1163 ft 125 kts 133°
2026-04-22 19:57 50.90826 7.08865 994 ft 125 kts 133°
2026-04-22 19:57 50.90178 7.09806 836 ft 128 kts 133°
2026-04-22 19:57 50.89515 7.10769 684 ft 129 kts 133°
2026-04-22 19:58 50.88859 7.11726 517 ft 129 kts 133°
2026-04-22 19:58 50.88206 7.12675 312 ft 126 kts 133°
2026-04-22 19:58 50.87609 7.13543 239 ft 102 kts 138°
2026-04-22 19:58 50.87202 7.14132 247 ft 57 kts 137°
2026-04-22 19:59 50.86951 7.14497 258 ft 41 kts 137°
2026-04-22 20:00 50.87365 7.13439 232 ft 29 kts 317°
2026-04-22 20:00 50.87519 7.13216 233 ft 29 kts 318°
2026-04-22 20:01 50.87666 7.13001 233 ft 27 kts 317°
2026-04-22 20:01 50.87743 7.12891 233 ft 11 kts 317°
2026-04-22 20:01 50.87760 7.12867 232 ft 0 kts 317°
2026-04-22 20:03 50.87767 7.12857 232 ft 5 kts 317°
2026-04-22 20:03 50.87791 7.12804 232 ft 6 kts 290°
2026-04-22 20:03 50.87786 7.12741 232 ft 8 kts 259°
2026-04-22 20:03 50.87813 7.12636 234 ft 11 kts 319°
2026-04-22 20:04 50.87892 7.12614 232 ft 13 kts
2026-04-22 20:04 50.87958 7.12557 232 ft 9 kts 316°
2026-04-22 20:04 50.88010 7.12482 232 ft 11 kts 317°
2026-04-22 20:04 50.88057 7.12384 232 ft 11 kts 275°
2026-04-22 20:05 50.88009 7.12322 232 ft 9 kts 214°
2026-04-22 20:05 50.87977 7.12247 232 ft 8 kts 266°
2026-04-22 20:05 50.87980 7.12198 232 ft 1 kts 277°